Location: Roswell
(33.3943°N, 104.5230°W)
Time: 03:56:55
(UTC+00:00)

Altair - All Passes

Search period start: 12 November 2024 00:00
Search period end: 22 November 2024 00:00
Orbit: 1501 x 1682 km, 47.2° (Epoch: 11 November)

Date Brightness Start Highest point End Pass type
(mag) Time Alt. Az. Time Alt. Az. Time Alt. Az.
12 Nov - 01:52:08 10° WNW 02:00:06 33° SW 02:08:20 10° S visible
12 Nov - 15:00:46 10° S 15:08:20 28° SE 15:15:44 10° ENE daylight
12 Nov - 17:02:53 10° SW 17:12:17 85° NW 17:21:30 10° NE daylight
12 Nov - 19:09:26 10° W 19:17:55 39° NNW 19:26:23 10° NE daylight
12 Nov - 21:16:27 10° NW 21:24:45 36° N 21:33:08 10° ENE daylight
12 Nov - 23:21:30 10° NW 23:30:43 72° NNE 23:40:10 10° ESE daylight
13 Nov - 01:26:46 10° WNW 01:34:58 37° SW 01:43:25 10° SSE visible
13 Nov - 14:36:00 10° S 14:43:12 25° SE 14:50:15 10° ENE daylight
13 Nov - 16:37:39 10° SW 16:47:04 89° SE 16:56:18 10° NE daylight
13 Nov - 18:44:00 10° W 18:52:35 41° NNW 19:01:07 10° NE daylight
13 Nov - 20:51:08 10° NW 20:59:23 36° N 21:07:42 10° ENE daylight
13 Nov - 22:56:18 10° NW 23:05:28 68° NNE 23:14:50 10° ESE daylight
14 Nov - 01:01:25 10° WNW 01:09:49 40° SW 01:18:29 10° SSE visible
14 Nov - 14:11:20 10° S 14:18:05 22° SE 14:24:43 10° E daylight
14 Nov - 16:12:26 10° SW 16:21:52 83° SE 16:31:05 10° NE daylight
14 Nov - 18:18:34 10° W 18:27:15 42° NNW 18:35:52 10° NE daylight
14 Nov - 20:25:49 10° WNW 20:34:01 35° N 20:42:16 10° ENE daylight
14 Nov - 22:31:07 10° NW 22:40:13 63° NNE 22:49:30 10° ESE daylight
15 Nov - 00:36:06 10° WNW 00:44:41 44° SW 00:53:30 10° SSE visible
15 Nov - 13:46:44 10° SSE 13:52:59 20° SE 13:59:06 10° E daylight
15 Nov - 15:47:14 10° SW 15:56:40 77° SE 16:05:52 10° NE daylight
15 Nov - 17:53:09 10° W 18:01:56 44° NNW 18:10:37 10° NE daylight
15 Nov - 20:00:28 10° WNW 20:08:39 34° N 20:16:51 10° ENE daylight
15 Nov - 22:05:54 10° NW 22:14:57 59° NNE 22:24:09 10° ESE daylight
16 Nov - 00:10:48 10° WNW 00:19:31 49° SW 00:28:29 10° SSE visible
16 Nov - 13:22:15 10° SSE 13:27:52 17° SE 13:33:22 10° E daylight
16 Nov - 15:22:03 10° SW 15:31:29 72° SE 15:40:39 10° ENE daylight
16 Nov - 17:27:44 10° W 17:36:37 47° NNW 17:45:22 10° NE daylight
16 Nov - 19:35:06 10° WNW 19:43:16 34° N 19:51:27 10° ENE daylight
16 Nov - 21:40:41 10° NW 21:49:41 56° NNE 21:58:47 10° ESE daylight
16 Nov - 23:45:32 10° WNW 23:54:22 54° SW 00:03:27 10° SSE daylight
17 Nov - 12:57:55 10° SSE 13:02:46 15° ESE 13:07:30 10° E visible
17 Nov - 14:56:54 10° SW 15:06:18 66° SE 15:15:25 10° ENE daylight
17 Nov - 17:02:19 10° W 17:11:18 49° NNW 17:20:09 10° NE daylight
17 Nov - 19:09:44 10° WNW 19:17:54 34° N 19:26:03 10° ENE daylight
17 Nov - 21:15:28 10° NW 21:24:24 53° NNE 21:33:25 10° ESE daylight
17 Nov - 23:20:16 10° WNW 23:29:12 59° SW 23:38:23 10° SSE daylight
18 Nov - 01:29:33 10° WSW 01:32:37 12° WSW 01:35:43 10° SW visible
18 Nov - 12:33:52 10° SSE 12:37:39 13° ESE 12:41:23 10° E visible
18 Nov - 14:31:47 10° SSW 14:41:08 61° SE 14:50:10 10° ENE daylight
18 Nov - 16:36:54 10° W 16:46:00 52° NNW 16:54:55 10° NE daylight
18 Nov - 18:44:20 10° WNW 18:52:32 34° N 19:00:40 10° ENE daylight
18 Nov - 20:50:15 10° NW 20:59:06 50° NNE 21:08:01 10° E daylight
18 Nov - 22:55:01 10° WNW 23:04:02 64° SW 23:13:17 10° SE daylight
19 Nov - 01:03:14 10° W 01:07:31 14° WSW 01:11:51 10° SSW visible
19 Nov - 12:10:25 10° SE 12:12:33 11° ESE 12:14:40 10° ESE visible
19 Nov - 14:06:41 10° SSW 14:15:57 55° SE 14:24:55 10° ENE daylight
19 Nov - 16:11:30 10° WSW 16:20:43 55° NNW 16:29:43 10° NE daylight
19 Nov - 18:18:56 10° WNW 18:27:09 34° N 18:35:17 10° ENE daylight
19 Nov - 20:25:01 10° NW 20:33:48 47° NNE 20:42:37 10° E daylight
19 Nov - 22:29:46 10° WNW 22:38:52 70° SW 22:48:09 10° SE daylight
20 Nov - 00:37:17 10° W 00:42:24 16° SW 00:47:38 10° SSW visible
20 Nov - 13:41:37 10° SSW 13:50:47 51° SE 13:59:39 10° ENE daylight
20 Nov - 15:46:08 10° WSW 15:55:26 58° NNW 16:04:30 10° NE daylight
20 Nov - 17:53:31 10° WNW 18:01:46 34° N 18:09:56 10° ENE daylight
20 Nov - 19:59:46 10° NW 20:08:29 45° NNE 20:17:13 10° E daylight
20 Nov - 22:04:32 10° NW 22:13:41 75° SW 22:22:59 10° SE daylight
21 Nov - 00:11:31 10° W 00:17:18 19° SW 00:23:13 10° SSW visible
21 Nov - 13:16:36 10° SSW 13:25:38 46° SE 13:34:21 10° ENE daylight
21 Nov - 15:20:46 10° WSW 15:30:09 62° NNW 15:39:18 10° NE daylight
21 Nov - 17:28:05 10° WNW 17:36:24 35° N 17:44:36 10° ENE daylight
21 Nov - 19:34:31 10° NW 19:43:10 43° NNE 19:51:48 10° E daylight
21 Nov - 21:39:19 10° NW 21:48:30 81° SW 21:57:49 10° SE daylight
21 Nov - 23:45:51 10° W 23:52:12 21° SW 23:58:40 10° S daylight
